Location: Paddlesworth
(51.1000°N, 1.1333°E)
Time: 18:34:51
(UTC+00:00)

Cosmos 1782 - Pass Details

Date: 11 May 2021
Orbit: 537 x 550 km, 82.5° (Epoch: 21 June)

Event Time Altitude Azimuth Distance (km) Brightness Sun altitude
Exits shadow 20:23:07 - 177° (S) 2,744 6.0 -7.1°
Rises 20:23:13 0° 177° (S) 2,706 5.9 -7.1°
Reaches altitude 10° 20:25:24 10° 172° (S) 1,816 5.0 -7.4°
Maximum altitude 20:29:17 54° 96° (E) 673 3.0 -7.9°
Drops below altitude 10° 20:33:12 10° 19° (NNE) 1,825 5.8 -8.3°
Sets 20:35:24 0° 14° (NNE) 2,720 6.8 -8.6°
